{"data":{"norad_id":51139,"epoch":"2026-05-24T21:16:08.158656Z","epoch_age_seconds":87822,"freshness":"FRESH","line1":"1 51139U 22005AM  26144.88620554  .00000559  00000+0  53194-4 0  9997","line2":"2 51139  53.2120 317.0704 0001535  73.8368 286.2793 15.08836303240241","mean_motion":15.08836303,"eccentricity":0.0001535,"inclination_deg":53.212,"raan_deg":317.0704,"arg_perigee_deg":73.8368,"mean_anomaly_deg":286.2793,"bstar":5.3194e-5,"rev_number":24024,"period_min":95.43778852198,"perigee_km":538.69279286287,"apogee_km":540.81658561147,"semimajor_km":6917.8916892372,"source":"CELESTRAK","updated_at":"2026-05-25T13:38:16.914102Z"}}